Weather History for KEVV - May, 2014

Change the Weather History Date:

Thursday, May 22, 2014

  Actual Average Record
Temperature  
Mean Temperature 78 °F 68 °F  
Max Temperature 86 °F 79 °F 93 °F (1975)
Min Temperature 69 °F 56 °F 38 °F (1963)
Degree Days  
Heating Degree Days 0 2  
Month to date heating degree days 92 74  
Since 1 July heating degree days 4980 4529  
Cooling Degree Days 13 4  
Month to date cooling degree days 107 59  
Year to date cooling degree days 117 86  
Growing Degree Days 28 (Base 50)    
Moisture  
Dew Point 62 °F    
Average Humidity 57    
Maximum Humidity 79    
Minimum Humidity 34    
Precipitation  
Precipitation 0.00 in 0.16 in 2.83 in (1908)
Month to date precipitation 3.64 3.82  
Year to date precipitation 21.41 18.70  
Snow  
Snow 0.00 in 0.00 in 0.00 in (2002)
Month to date snowfall 0.0 0.0  
Since 1 July snowfall 12.6 11.8  
Snow Depth 0.00 in    
Sea Level Pressure  
Sea Level Pressure 30.02 in    
Wind  
Wind Speed 6 mph (NW)    
Max Wind Speed 14 mph    
Max Gust Speed 19 mph    
Visibility 9 miles    
Events      
T = Trace of Precipitation, MM = Missing Value Source: NWS Daily Summary

Daily Weather History Graph

Daily Weather History Graph

Search for Another Location

Airport or City:

Trip Planner

Search our weather history database for the weather conditions in past years. The results will help you decide how hot, cold, wet, or windy it might be!

Date:

Astronomy

May. 22, 2014 Rise Set
Actual Time 5:34 AM CDT 7:59 PM CDT
Civil Twilight 5:04 AM CDT 8:29 PM CDT
Nautical Twilight 4:26 AM CDT 9:07 PM CDT
Astronomical Twilight 3:45 AM CDT 9:48 PM CDT
Moon 1:47 AM CDT (5/22) 1:52 PM CDT (5/22)
Length of Visible Light 15h 25m
Length of Day
14h 25m
Last Quarter, 37% of the Moon is Illuminated
May 22
Last Quarter
May 28
New
Jun 5
First Quarter
Jun 12
Full
Jun 19
Last Quarter

Hourly Weather History & Observations

Time (CDT) Temp. Heat Index Dew Point Humidity Pressure Visibility Wind Dir Wind Speed Gust Speed Precip Events Conditions
12:54 AM 72.0 °F - 64.0 °F 76% 29.96 in 10.0 mi SSW 8.1 mph - N/A   Partly Cloudy
1:54 AM 71.1 °F - 64.0 °F 78% 29.97 in 10.0 mi SW 4.6 mph - N/A   Overcast
2:54 AM 72.0 °F - 64.0 °F 76% 29.96 in 10.0 mi SW 5.8 mph - N/A   Overcast
3:54 AM 71.1 °F - 64.0 °F 78% 29.97 in 10.0 mi SW 5.8 mph - N/A   Scattered Clouds
4:54 AM 71.1 °F - 64.0 °F 78% 30.00 in 10.0 mi Calm Calm - N/A   Overcast
5:07 AM 71.1 °F - 64.0 °F 78% 30.01 in 10.0 mi ESE 3.5 mph - N/A   Overcast
5:29 AM 71.1 °F - 64.0 °F 78% 30.01 in 10.0 mi SE 4.6 mph - N/A   Overcast
5:51 AM 71.6 °F - 64.4 °F 78% 30.01 in 10.0 mi SSE 4.6 mph - N/A   Overcast
5:54 AM 71.1 °F - 64.0 °F 78% 30.01 in 10.0 mi SSE 4.6 mph - N/A   Overcast
6:54 AM 72.0 °F - 64.9 °F 78% 30.02 in 9.0 mi South 3.5 mph - N/A   Overcast
7:54 AM 73.0 °F - 64.9 °F 76% 30.03 in 5.0 mi SW 4.6 mph - N/A   Haze
8:54 AM 75.0 °F - 66.0 °F 73% 30.03 in 6.0 mi WSW 3.5 mph - N/A   Haze
9:37 AM 75.9 °F - 66.9 °F 74% 30.04 in 6.0 mi Variable 3.5 mph - N/A   Haze
9:54 AM 77.0 °F - 66.9 °F 71% 30.04 in 6.0 mi NW 5.8 mph - N/A   Haze
10:54 AM 80.1 °F 82.7 °F 68.0 °F 67% 30.05 in 7.0 mi NNW 5.8 mph - N/A   Haze
11:54 AM 82.9 °F 85.8 °F 68.0 °F 60% 30.05 in 9.0 mi WNW 5.8 mph - N/A   Haze
12:54 PM 84.0 °F 86.3 °F 66.0 °F 55% 30.05 in 10.0 mi WNW 9.2 mph - N/A   Haze
1:54 PM 86.0 °F 86.1 °F 61.0 °F 43% 30.06 in 10.0 mi NW 13.8 mph - N/A   Scattered Clouds
2:54 PM 86.0 °F 84.7 °F 55.9 °F 36% 30.03 in 10.0 mi North 11.5 mph - N/A   Clear
3:54 PM 84.2 °F 82.8 °F 53.6 °F 35% 30.03 in 10.0 mi North 8.1 mph - N/A   Clear
4:54 PM 82.9 °F - 52.0 °F 34% 30.02 in 10.0 mi NNW 9.2 mph - N/A   Clear
5:54 PM 81.0 °F 80.4 °F 53.1 °F 38% 30.02 in 10.0 mi NNW 5.8 mph - N/A   Clear
6:54 PM 80.1 °F 80.1 °F 55.0 °F 42% 30.03 in 10.0 mi North 6.9 mph - N/A   Clear
7:54 PM 77.0 °F - 55.0 °F 47% 30.04 in 10.0 mi NNW 3.5 mph - N/A   Mostly Cloudy
8:54 PM 75.0 °F - 57.0 °F 53% 30.05 in 10.0 mi NNE 3.5 mph - N/A   Clear
9:54 PM 73.0 °F - 57.9 °F 59% 30.07 in 10.0 mi NNE 3.5 mph - N/A   Scattered Clouds
10:54 PM 71.1 °F - 57.9 °F 63% 30.07 in 10.0 mi Calm Calm - N/A   Clear
11:54 PM 70.0 °F - 57.9 °F 65% 30.06 in 10.0 mi NNE 4.6 mph - N/A   Scattered Clouds